Find Starlink 11127

NORAD ID: 60119 Int'l Des: 2024-118 Owner: SPXS Country: US Constellation: starlink operational
又名: STARLINK-11127 [DTC] celestrak
LEOCIRCULAR

当前视图

正在加载3D地球...

About Starlink 11127

Starlink 11127 (NORAD 60119) is a starlink constellation satellite (v2 mini d2c) launched Jun 24, 2024 by SPXS of US. It operates in LEO, CIRCULAR orbit with a mass of 960.00 kg.

即将过境

Passes for default location (London). Set your location on the main map for personalized predictions.

高度历史

Loading altitude history...

两行轨道根数

1 60119U 24118G 26265.49157009 -.00000726 00000-0 -11391-5 0 9996
2 60119 53.1602 331.0721 0001380 61.6910 298.4247 15.69671759128900
Epoch: Sep 22, 2026 • Age: 16 hours

当前状态

高度 365.4 km
远地点 / 近地点 N/A
速度 7.70 km/s
星下点 52.38°N, 18.17°E
发射日期 Jun 24, 2024
运行时间 2.2 years
类型 internet

技术详情

分类 Payload
质量 960.00 kg
干质量 910.00 kg
长度 0.30 m
跨度 29.00 m
形状 ? Box + pan
制造商 SPXS
平台类型 Starlink V2MD
阶段状态 In Orbit
所有者/国家 SPXS/US

Most Searched